[[{"header":{"parameterUnit":"m.s-1","parameterCategory":1,"la1":30.2991,"la2":30.254,"lo1":-89.0895,"lo2":-89.0444,"dy":0.0017,"dx":0.0017,"nx":28,"ny":28,"refTime":"2025-11-06T09:00:00:Z","depth":0,"parameterNumber":2,"parameterNumberName":"U-component_of_WINDS"},"data":[0,0,0,0,0,0,0,0,0,0,0,0,0,0,0,0,0,0,0,0,0,0,0,0,0,0,0,0,0,0,0,0,0,0,0,0,0,0,0,0,0,0,0,0,0,0,0,0,0,0,0,0,0,0,0,0,0,0,-1.6843,-1.6844,0,-1.6894,-1.6895,-1.6895,-1.685,-1.6848,-1.6846,-1.6844,-1.6896,-1.6899,-1.6902,0,0,0,0,0,0,0,0,0,0,0,0,0,-1.6705,-1.6708,-1.6843,-1.6844,-1.6844,-1.6894,-1.6895,-1.6896,-1.685,-1.6848,-1.6846,-1.6843,-1.6895,-1.6899,-1.6903,0,0,0,0,0,0,0,0,0,0,0,0,0,-1.6762,-1.6709,-1.6843,-1.6828,-1.6827,-1.6894,-1.6895,-1.6896,-1.6851,-1.6848,-1.6845,-1.6842,-1.6894,-1.6898,-1.6903,-1.6988,0,0,-1.6917,-1.6919,0,0,0,0,0,0,0,0,-1.6758,-1.6767,-1.6829,-1.6829,-1.6828,-1.6863,-1.6865,-1.6927,-1.6851,-1.6842,-1.6844,-1.6841,-1.6887,-1.6892,-1.6908,-1.699,-1.6992,-1.6918,-1.6921,-1.6923,-1.6924,0,0,0,0,0,0,0,-1.6755,-1.6764,-1.6863,-1.683,-1.683,-1.6818,-1.6823,-1.6877,-1.6879,-1.6842,-1.6839,-1.6846,-1.6886,-1.6904,-1.6909,-1.6993,-1.6918,-1.6922,-1.6925,-1.6926,-1.7147,-1.715,0,0,0,0,0,0,-1.6752,-1.6761,-1.6862,-1.6865,-1.6786,-1.6823,-1.6828,-1.6854,-1.6879,-1.688,-1.6848,-1.6843,-1.6897,-1.6903,-1.6911,-1.7011,-1.6923,-1.6927,-1.693,-1.7144,-1.7147,-1.7151,0,0,0,0,0,0,-1.675,-1.6762,-1.686,-1.6812,-1.6824,-1.6828,-1.6858,-1.6857,-1.6874,-1.6883,-1.6883,-1.6865,-1.6895,-1.6904,-1.6969,-1.7013,-1.6929,-1.6933,-1.714,-1.7145,-1.7149,-1.7214,0,0,0,0,0,0,-1.6746,-1.6761,-1.6794,-1.6813,-1.6826,-1.6918,-1.6861,-1.686,-1.6882,-1.6877,-1.6899,-1.69,-1.6894,-1.6962,-1.6973,-1.7018,-1.6937,-1.7136,-1.7142,-1.7148,-1.7208,-1.722,-1.7231,0,0,0,0,0,-1.6741,-1.681,-1.6796,-1.6808,-1.6867,-1.692,-1.6928,-1.6919,-1.6886,-1.6919,-1.6924,-1.69,-1.7006,-1.6969,-1.6982,-1.7028,-1.7133,-1.7141,-1.7147,-1.7203,-1.7218,-1.723,0,0,0,0,0,0,-1.6795,-1.6812,-1.6797,-1.6874,-1.6896,-1.6913,-1.6954,-1.6935,-1.6967,-1.696,-1.6947,-1.6953,-1.7021,-1.703,-1.699,-1.7111,-1.7064,-1.7074,-1.7102,-1.7117,-1.7128,-1.7124,-1.6941,0,0,0,0,0,-1.6816,-1.6858,-1.687,-1.6937,-1.6949,-1.695,-1.6972,-1.6963,-1.6986,-1.6995,-1.7005,-1.7028,-1.7066,-1.7091,-1.7127,-1.7208,-1.7213,-1.7246,-1.7257,-1.7267,-1.7276,-1.7319,-1.7334,-1.7173,-1.7173,-1.7173,0,0,-1.686,-1.6874,-1.6902,-1.6949,-1.6965,-1.7008,-1.6958,-1.7006,-1.7038,-1.7002,-1.7064,-1.7072,-1.7096,-1.717,-1.7203,-1.718,-1.7321,-1.7275,-1.7283,-1.7287,-1.7328,-1.7343,-1.7357,-1.7178,-1.7177,-1.7176,0,0,-1.6962,-1.6977,-1.7035,-1.7052,-1.7077,-1.7076,-1.709,-1.7109,-1.7114,-1.7176,-1.7149,-1.7187,-1.7253,-1.7271,-1.7289,-1.7397,-1.7376,-1.7409,-1.7469,-1.7512,-1.7524,-1.7536,-1.7575,-1.7589,-1.7418,-1.7418,-1.7418,0,-1.7014,-1.7078,-1.7067,-1.7117,-1.7138,-1.7107,-1.7165,-1.7182,-1.7217,-1.7233,-1.7206,-1.7289,-1.7302,-1.738,-1.7406,-1.7422,-1.7437,-1.7407,-1.7523,-1.7535,-1.7545,-1.7582,-1.7597,-1.7422,-1.7421,-1.7421,-1.7421,0,-1.714,-1.7186,-1.7229,-1.7264,-1.729,-1.7344,-1.734,-1.7367,-1.7356,-1.7358,-1.7421,-1.7437,-1.7475,-1.7492,-1.7481,-1.7568,-1.7553,-1.7525,-1.7479,-1.7564,-1.7599,-1.7613,-1.7427,-1.7426,-1.7425,-1.7424,0,0,-1.728,-1.7307,-1.7323,-1.7339,-1.7363,-1.7398,-1.745,-1.7487,-1.7511,-1.7536,-1.758,-1.7636,-1.761,-1.7631,-1.7621,-1.7658,-1.7743,-1.7626,-1.7626,-1.7648,-1.784,-1.7862,-1.7878,-1.7729,-1.7731,-1.7733,-1.7838,0,-1.7384,-1.7475,-1.7465,-1.7551,-1.7593,-1.7563,-1.7608,-1.7628,-1.7632,-1.7667,-1.767,-1.771,-1.7673,-1.7685,-1.7721,-1.7726,-1.7782,-1.7718,-1.7769,-1.7771,-1.7765,-1.7896,-1.7919,-1.8018,-1.7852,-1.7854,-1.7856,0,-1.7517,-1.7547,-1.7638,-1.7656,-1.7673,-1.7714,-1.7747,-1.7781,-1.7803,-1.7802,-1.7825,-1.7808,-1.786,-1.7811,-1.7882,-1.7839,-1.7859,-1.7864,-1.7868,-1.7873,-1.782,-1.7906,-1.8049,-1.8064,-1.7877,-1.7875,-1.7874,0,-1.7611,-1.7674,-1.7736,-1.775,-1.7772,-1.7802,-1.7812,-1.7831,-1.7854,-1.7883,-1.7897,-1.7932,-1.7951,-1.7977,-1.7971,-1.7936,-1.8043,-1.7994,-1.8045,-1.8045,-1.807,-1.8069,-1.8219,-1.8081,-1.8081,-1.8081,-1.808,0,-1.7729,-1.7785,-1.7778,-1.7817,-1.7879,-1.7867,-1.7929,-1.7936,-1.7953,-1.7992,-1.7968,-1.8005,-1.7993,-1.8029,-1.8024,-1.8084,-1.8092,-1.8093,-1.8091,-1.8096,-1.8096,-1.811,-1.8104,-1.8085,-1.8084,-1.8083,-1.8082,0,-1.7844,-1.7842,-1.7908,-1.7923,-1.7929,-1.7974,-1.7987,-1.8023,-1.8023,-1.8073,-1.8084,-1.8085,-1.8126,-1.8122,-1.8168,-1.8165,-1.8239,-1.8228,-1.8232,-1.823,-1.8281,-1.8277,-1.8447,-1.8469,-1.8316,-1.8317,-1.8318,0,-1.792,-1.7963,-1.7983,-1.8008,-1.802,-1.806,-1.8083,-1.8072,-1.8097,-1.8125,-1.8157,-1.8196,-1.8227,-1.8295,-1.8299,-1.8334,-1.8325,-1.8382,-1.833,-1.8334,-1.8327,-1.8325,-1.8329,-1.8393,-1.8395,-1.8396,-1.8397,0,-1.8056,-1.8052,-1.8087,-1.8121,-1.8149,-1.8175,-1.8199,-1.822,-1.8211,-1.8241,-1.8283,-1.8307,-1.8354,-1.8393,-1.8426,-1.8436,-1.8416,-1.8413,-1.8427,-1.8433,-1.8434,-1.8435,-1.8261,-1.841,-1.8408,-1.8407,-1.8407,-1.8406,-1.8154,-1.8191,-1.8211,-1.825,-1.8267,-1.8289,-1.8324,-1.8328,-1.8363,-1.8401,-1.8392,-1.844,-1.8459,-1.8501,-1.8515,-1.8551,-1.8531,-1.855,-1.8555,-1.8561,-1.8567,-1.8427,-1.8557,-1.8557,-1.8556,-1.8556,-1.8556,0,-1.8289,-1.83,-1.8336,-1.837,-1.8401,-1.8378,-1.8403,-1.843,-1.8472,-1.8492,-1.8523,-1.8571,-1.8608,-1.8616,-1.8651,-1.8679,-1.8671,-1.8689,-1.8687,-1.869,-1.8583,-1.8568,-1.8695,-1.8695,-1.8695,-1.8695,-1.8695,-1.8695,-1.8363,-1.8424,-1.8423,-1.8492,-1.8502,-1.8548,-1.8565,-1.8585,-1.8601,-1.8656,-1.8687,-1.8691,-1.8706,-1.8742,-1.8776,-1.8777,-1.8791,-1.8814,-1.8811,-1.8712,-1.8698,-1.8684,-1.867,-1.8817,-1.8817,-1.8915,-1.8916,-1.8917]},{"header":{"parameterUnit":"m.s-1","parameterCategory":1,"la1":30.2991,"la2":30.254,"lo1":-89.0895,"lo2":-89.0444,"dy":0.0017,"dx":0.0017,"nx":28,"ny":28,"refTime":"2025-11-06T09:00:00:Z","depth":0,"parameterNumber":3,"parameterNumberName":"V-component_of_WINDS"},"data":[0,0,0,0,0,0,0,0,0,0,0,0,0,0,0,0,0,0,0,0,0,0,0,0,0,0,0,0,0,0,0,0,0,0,0,0,0,0,0,0,0,0,0,0,0,0,0,0,0,0,0,0,0,0,0,0,0,0,-3.0085,-3.0085,0,-3.0159,-3.0159,-3.016,-3.0127,-3.0126,-3.0124,-3.0122,-3.0194,-3.0197,-3.0201,0,0,0,0,0,0,0,0,0,0,0,0,0,-2.9911,-2.9914,-3.0084,-3.0085,-3.0086,-3.0158,-3.0159,-3.016,-3.0128,-3.0126,-3.0123,-3.0121,-3.0193,-3.0197,-3.0201,0,0,0,0,0,0,0,0,0,0,0,0,0,-2.9986,-2.9915,-3.0084,-3.0079,-3.0079,-3.0158,-3.0159,-3.0161,-3.0128,-3.0125,-3.0123,-3.012,-3.0191,-3.0197,-3.0202,-3.0289,0,0,-3.0218,-3.0221,0,0,0,0,0,0,0,0,-2.9981,-2.9992,-3.0079,-3.0079,-3.008,-3.0131,-3.0124,-3.0204,-3.0129,-3.0109,-3.0122,-3.0119,-3.0175,-3.0181,-3.0201,-3.0293,-3.0296,-3.0219,-3.0222,-3.0224,-3.0226,0,0,0,0,0,0,0,-2.9976,-2.9988,-3.0114,-3.008,-3.0081,-3.0071,-3.0079,-3.0139,-3.0156,-3.0111,-3.0109,-3.0118,-3.0175,-3.0196,-3.0203,-3.0297,-3.0219,-3.0223,-3.0227,-3.0229,-3.0463,-3.0466,0,0,0,0,0,0,-2.9972,-2.9984,-3.0111,-3.0116,-3.0023,-3.0077,-3.0085,-3.0117,-3.0156,-3.0159,-3.012,-3.0116,-3.0188,-3.0196,-3.0205,-3.031,-3.0224,-3.0229,-3.0233,-3.046,-3.0464,-3.0467,0,0,0,0,0,0,-2.9968,-2.9983,-3.0108,-3.005,-3.0065,-3.0083,-3.0119,-3.012,-3.0142,-3.0163,-3.0165,-3.014,-3.0186,-3.0197,-3.0269,-3.0312,-3.0232,-3.0237,-3.0457,-3.0462,-3.0466,-3.052,0,0,0,0,0,0,-2.9963,-2.9982,-3.0017,-3.0051,-3.0068,-3.0172,-3.0122,-3.0124,-3.0151,-3.0147,-3.0181,-3.0184,-3.0185,-3.0261,-3.0274,-3.0318,-3.0241,-3.0453,-3.0459,-3.0464,-3.0515,-3.0526,-3.0536,0,0,0,0,0,-2.9957,-3.0028,-3.0019,-3.0034,-3.0112,-3.0175,-3.0185,-3.0185,-3.0155,-3.0189,-3.0203,-3.0183,-3.0305,-3.0269,-3.0283,-3.0329,-3.045,-3.0457,-3.0464,-3.051,-3.0524,-3.0536,0,0,0,0,0,0,-2.9997,-3.0033,-3.0022,-3.0107,-3.0138,-3.0169,-3.0212,-3.02,-3.0239,-3.0233,-3.0231,-3.0239,-3.0313,-3.0328,-3.0287,-3.0416,-3.0373,-3.0383,-3.0403,-3.0417,-3.0427,-3.0422,-3.0245,0,0,0,0,0,-3.0017,-3.0066,-3.0094,-3.0166,-3.0182,-3.0195,-3.0222,-3.022,-3.0252,-3.0264,-3.0283,-3.0314,-3.0359,-3.0388,-3.0431,-3.0517,-3.0523,-3.0556,-3.0566,-3.0575,-3.0583,-3.0629,-3.0644,-3.0489,-3.0489,-3.0489,0,0,-3.0056,-3.0081,-3.0112,-3.0174,-3.0198,-3.0249,-3.0206,-3.0261,-3.0298,-3.0272,-3.0341,-3.0356,-3.039,-3.0469,-3.0505,-3.0484,-3.0627,-3.0583,-3.059,-3.0594,-3.0638,-3.0652,-3.0665,-3.0494,-3.0493,-3.0492,0,0,-3.0153,-3.0178,-3.024,-3.0266,-3.0303,-3.0311,-3.0326,-3.0359,-3.0368,-3.0438,-3.042,-3.0463,-3.054,-3.0565,-3.0588,-3.0695,-3.0678,-3.0708,-3.0764,-3.0808,-3.082,-3.0831,-3.0869,-3.0882,-3.0717,-3.0717,-3.0717,0,-3.0197,-3.0273,-3.0274,-3.0331,-3.0358,-3.0338,-3.0401,-3.0425,-3.0474,-3.0493,-3.0469,-3.0566,-3.0587,-3.0672,-3.0698,-3.0717,-3.0733,-3.0704,-3.0819,-3.083,-3.084,-3.0876,-3.089,-3.0721,-3.072,-3.072,-3.0719,0,-3.0325,-3.0378,-3.0424,-3.0473,-3.0506,-3.0565,-3.0573,-3.0606,-3.06,-3.061,-3.0681,-3.0706,-3.0753,-3.0773,-3.0768,-3.0856,-3.0842,-3.0819,-3.0776,-3.0858,-3.0891,-3.0905,-3.0725,-3.0724,-3.0723,-3.0722,0,0,-3.045,-3.0499,-3.0516,-3.0538,-3.0578,-3.0618,-3.0676,-3.0723,-3.0751,-3.0785,-3.0833,-3.0899,-3.0878,-3.0904,-3.0901,-3.0941,-3.1023,-3.0912,-3.0913,-3.0932,-3.1122,-3.1139,-3.1155,-3.1012,-3.1015,-3.1017,-3.1119,0,-3.055,-3.0653,-3.0655,-3.0749,-3.0798,-3.078,-3.083,-3.0859,-3.087,-3.0912,-3.0923,-3.097,-3.0938,-3.0954,-3.0992,-3.1005,-3.1061,-3.0998,-3.1056,-3.1058,-3.1048,-3.1172,-3.1191,-3.1286,-3.1132,-3.1134,-3.1136,0,-3.068,-3.072,-3.082,-3.0853,-3.0873,-3.0918,-3.0962,-3.1002,-3.1035,-3.1039,-3.1069,-3.106,-3.1118,-3.1073,-3.1152,-3.1109,-3.1133,-3.1143,-3.1146,-3.1151,-3.1102,-3.1181,-3.1316,-3.133,-3.1156,-3.1155,-3.1153,0,-3.0761,-3.084,-3.0909,-3.0929,-3.0969,-3.1001,-3.1019,-3.1048,-3.1077,-3.1114,-3.1132,-3.1176,-3.1199,-3.1232,-3.1235,-3.1203,-3.1314,-3.127,-3.1319,-3.1319,-3.1343,-3.1342,-3.1484,-3.1359,-3.1359,-3.1359,-3.1358,0,-3.0873,-3.0934,-3.0946,-3.0989,-3.1057,-3.1058,-3.1124,-3.1139,-3.1166,-3.121,-3.1197,-3.1238,-3.124,-3.1282,-3.1284,-3.1349,-3.136,-3.1364,-3.1364,-3.1366,-3.1365,-3.1381,-3.1374,-3.1362,-3.1362,-3.1361,-3.136,0,-3.0974,-3.0985,-3.106,-3.1092,-3.1101,-3.115,-3.1176,-3.1217,-3.1226,-3.1282,-3.1295,-3.131,-3.1359,-3.1365,-3.1422,-3.1423,-3.1501,-3.1494,-3.1491,-3.149,-3.1538,-3.1534,-3.1696,-3.1717,-3.1578,-3.1579,-3.1581,0,-3.1045,-3.1092,-3.1129,-3.1159,-3.1179,-3.1226,-3.1255,-3.1258,-3.1289,-3.1329,-3.1364,-3.1412,-3.145,-3.1529,-3.1544,-3.1587,-3.158,-3.1634,-3.1587,-3.1587,-3.1581,-3.1578,-3.1582,-3.1643,-3.1645,-3.1646,-3.1647,0,-3.1169,-3.1172,-3.1215,-3.1261,-3.1296,-3.1332,-3.1365,-3.1389,-3.1396,-3.1431,-3.1481,-3.1511,-3.157,-3.1617,-3.166,-3.1676,-3.1663,-3.1662,-3.1676,-3.1677,-3.1674,-3.1676,-3.1516,-3.1658,-3.1657,-3.1656,-3.1656,-3.1655,-3.1257,-3.1297,-3.133,-3.1379,-3.1405,-3.1436,-3.1476,-3.149,-3.1533,-3.1582,-3.158,-3.1636,-3.1666,-3.1722,-3.1742,-3.1784,-3.1767,-3.1786,-3.1791,-3.1796,-3.1801,-3.1667,-3.1792,-3.1792,-3.1792,-3.1791,-3.1791,0,-3.1379,-3.14,-3.1445,-3.1492,-3.153,-3.1516,-3.1552,-3.1584,-3.1634,-3.1664,-3.1702,-3.176,-3.1806,-3.1824,-3.1869,-3.1899,-3.1894,-3.1911,-3.1908,-3.1912,-3.1814,-3.1798,-3.1914,-3.1914,-3.1914,-3.1914,-3.1914,-3.1914,-3.1448,-3.1516,-3.1523,-3.1604,-3.1623,-3.1679,-3.17,-3.1729,-3.1753,-3.1819,-3.1857,-3.187,-3.1895,-3.1941,-3.1982,-3.1986,-3.2003,-3.2022,-3.2024,-3.1932,-3.1919,-3.1907,-3.1892,-3.2026,-3.2026,-3.2118,-3.2119,-3.212]}]]